Regional Weather Roundup
Issued by NWS Jackson, KY

Home | Current Version | Previous Version | Text Only | Print | Product List | Glossary Off
Versions: 1 2 3 4 5 6 7 8 9 10 11 12 13 14 15 16 17 18 19 20 21 22 23 24 25 26 27 28 29 30 31 32 33 34 35 36 37 38 39 40 41 42 43 44 45 46 47 48 49 50

174
ASUS43 KJKL 221410
RWRJKL

EAST KENTUCKY HOURLY WEATHER ROUNDUP
NATIONAL WEATHER SERVICE JACKSON KY
1000 AM EDT THU JUN 22 2017

NOTE: "FAIR" INDICATES FEW OR NO CLOUDS BELOW 12,000 FEET WITH
NO SIGNIFICANT WEATHER AND/OR OBSTRUCTIONS TO VISIBILITY.

* THESE REPORTS ARE NOT UNDER NWS QUALITY CONTROL AND MAY NOT
  REPORT WEATHER SUCH AS PRECIPITATION AND FOG.

KYZ079-080-083-085-087-088-110-112-115-119-120-221500
...EASTERN KENTUCKY...

CITY           SKY/WX    TMP DP  RH WIND       PRES   REMARKS
JACKSON        PTSUNNY   75  68  78 CALM      30.11R
LONDON         LGT RAIN  71  67  87 S6        30.11R
SOMERSET*      CLOUDY    72  70  94 CALM      30.11R
MONTICELLO*    CLOUDY    73  68  84 E8        30.11S
WILLIAMSBURG*  CLOUDY    70  70 100 SE6       30.12R
MIDDLESBORO*   CLOUDY    70  70  98 CALM      30.14S
HARLAN APT*    CLOUDY    68  64  88 CALM      30.15R
PIKE CO APT*     N/A     72  68  88 S5        30.12S
BIG SANDY APT* CLOUDY    76  68  77 SW5       30.11S
MOREHEAD APT*  CLOUDY    75  68  78 S5        30.09S HAZE
$$

KYZ035-036-041-042-044-050-067-078-099-221500
...CENTRAL KENTUCKY...

CITY           SKY/WX    TMP DP  RH WIND       PRES   REMARKS
MT STERLING*   CLOUDY    75  68  78 SW7       30.08S
FLEMING/MASON* CLOUDY    76  68  77 SW8       30.08R
DANVILLE*      CLOUDY    73  68  83 S9        30.09R
LEXINGTON      CLOUDY    77  67  71 S10       30.06S
FRANKFORT      CLOUDY    77  67  71 S7        30.04S
LOUISVILLE     CLOUDY    78  69  73 S13       30.02R
LEBANON*         N/A     75  68  78 S10       30.06S
GLASGOW*       LGT RAIN  73  67  82 S5        30.05R
BOWLING GREEN  LGT RAIN  75  71  87 S8        30.04R
$$

KYZ091>093-OHZ055-061-077-WVZ005-015-034-035-042-221500
...SOUTHERN OHIO/WEST VIRGINIA...

CITY           SKY/WX    TMP DP  RH WIND       PRES   REMARKS
COVINGTON      PTSUNNY   76  69  79 SW8       30.03R
COLUMBUS       CLOUDY    79  69  71 SW7       30.02R
DAYTON         PTSUNNY   77  69  76 SW12      30.02S
WILMINGTON     MOSUNNY   77  71  82 SW12      30.03R
HUNTINGTON     PTSUNNY   76  67  73 SW8       30.07R
CHARLESTON     CLOUDY    77  67  71 VRB3      30.08R
PINEVILLE*     MOSUNNY   74  66  75 MISG      30.19S
BECKLEY        CLOUDY    72  65  78 SW8       30.17S
BLUEFIELD      MOSUNNY   70  63  78 W7        30.20S
LOGAN CO APT*    N/A     73  66  78 CALM      30.12S
$$

VAZ002-007-008-TNZ017-027-036-066-071-221500
...SOUTHWEST VIRGINIA/EAST TENNESSEE...

CITY           SKY/WX    TMP DP  RH WIND       PRES   REMARKS
WISE*          CLOUDY    72  64  78 CALM      30.20S
JONESVILLE*    LGT RAIN  68  68 100 CALM      30.18R
ABINGDON*      CLOUDY    73  67  80 CALM      30.18S
BRISTOL        CLOUDY    71  65  81 CALM      30.15S
MORRISTOWN*    CLOUDY    73  68  83 E5        30.13F
SEVIERVILLE*   MOSUNNY   70  66  88 CALM      30.12S
KNOXVILLE      LGT RAIN  73  67  81 CALM      30.12R
LAFOLLETTE*    SUNNY     72  70  94 CALM      30.16S
OAK RIDGE      CLOUDY    74  67  78 CALM      30.14R
CROSSVILLE     LGT RAIN  67  66  97 S3        30.15R FOG
NASHVILLE      LGT RAIN  72  70  93 SE9       30.03S FOG
$$

...KEY TO REMARKS...
VSB - VISIBILITY IN MILES
WCI - WIND CHILL INDEX
HX  - HEAT INDEX

$$




USA.gov is the U.S. government's official web portal to all federal, state and local government web resources and services.